FW8953 Weather Reports


Display with metric or nautical units.
time (UTC)temp
F
wind
direction
speed
MPH
gust
MPH
rain 1hr
in
rain 24hr
in
rain mn
in
humidity
%
barometer
mb
20210916163606 85 137 2.0 9.0 0.00 0.00 0.00 63 1015.1
20210916163104 84 62 2.0 9.0 0.00 0.00 0.00 62 1015.1
20210916162541 84 27 2.0 6.0 0.00 0.00 0.00 63 1015.1
20210916162039 84 352 1.0 5.0 0.00 0.00 0.00 64 1015.2
20210916161603 83 152 1.0 6.0 0.00 0.00 0.00 64 1015.3
20210916161039 83 108 2.0 6.0 0.00 0.00 0.00 63 1015.3
20210916160543 83 196 0.0 8.0 0.00 0.00 0.00 65 1015.3
20210916160138 83 159 2.0 8.0 0.00 0.00 0.00 66 1015.3
20210916155539 82 0 2.0 8.0 0.00 0.00 0.00 66 1015.2
20210916155047 82 83 3.0 7.0 0.00 0.00 0.00 66 1015.2
20210916154613 82 13 2.0 9.0 0.00 0.00 0.00 66 1015.1
20210916154038 81 111 4.0 9.0 0.00 0.00 0.00 66 1015.2
20210916153539 81 104 3.0 10.0 0.00 0.00 0.00 66 1015.2
20210916153223 81 133 3.0 10.0 0.00 0.00 0.00 68 1015.2
20210916152540 81 92 2.0 10.0 0.00 0.00 0.00 68 1015.2
20210916152038 80 126 4.0 10.0 0.00 0.00 0.00 68 1015.2
20210916151618 80 132 5.0 9.0 0.00 0.00 0.00 69 1015.2
20210916151043 80 136 4.0 9.0 0.00 0.00 0.00 68 1015.3
20210916150546 80 129 1.0 6.0 0.00 0.00 0.00 71 1015.2
20210916150103 80 118 2.0 10.0 0.00 0.00 0.00 70 1015.2
20210916145543 79 126 5.0 10.0 0.00 0.00 0.00 71 1015.3
20210916145039 79 145 5.0 11.0 0.00 0.00 0.00 72 1015.2
20210916144616 79 142 5.0 11.0 0.00 0.00 0.00 72 1015.2
20210916144041 79 134 4.0 9.0 0.00 0.00 0.00 72 1015.2
20210916143639 79 125 4.0 9.0 0.00 0.00 0.00 73 1015.2
20210916143144 79 98 3.0 9.0 0.00 0.00 0.00 74 1015.2
20210916142538 79 138 4.0 9.0 0.00 0.00 0.00 73 1015.1
20210916142037 78 133 3.0 9.0 0.00 0.00 0.00 74 1015.1
20210916141724 78 107 3.0 9.0 0.00 0.00 0.00 74 1015.0
20210916141035 78 142 1.0 8.0 0.00 0.00 0.00 75 1015.0
20210916140557 78 149 2.0 8.0 0.00 0.00 0.00 75 1015.1
20210916140052 78 135 3.0 7.0 0.00 0.00 0.00 75 1015.0
20210916135537 78 75 1.0 7.0 0.00 0.00 0.00 76 1014.9
20210916135041 77 117 1.0 4.0 0.00 0.00 0.00 77 1014.9
20210916134625 77 119 2.0 4.0 0.00 0.00 0.00 77 1015.0
20210916134037 76 0 0.0 5.0 0.00 0.00 0.00 80 1015.0
20210916133540 76 134 2.0 5.0 0.00 0.00 0.00 79 1015.0
20210916133153 75 139 2.0 9.0 0.00 0.00 0.00 80 1015.0
20210916132538 75 148 4.0 10.0 0.00 0.00 0.00 80 1015.0
20210916132038 75 133 5.0 10.0 0.00 0.00 0.00 80 1014.9
20210916131623 75 145 3.0 7.0 0.00 0.00 0.00 80 1014.8
20210916131038 74 114 2.0 6.0 0.00 0.00 0.00 81 1014.8
20210916130541 74 146 1.0 4.0 0.00 0.00 0.00 82 1014.7
20210916130128 73 94 1.0 4.0 0.00 0.00 0.00 82 1014.7
20210916125539 73 119 2.0 4.0 0.00 0.00 0.00 82 1014.6
20210916125044 73 120 1.0 3.0 0.00 0.00 0.00 82 1014.5
20210916124613 73 123 1.0 2.0 0.00 0.00 0.00 83 1014.5
20210916124037 73 109 0.0 3.0 0.00 0.00 0.00 83 1014.4
20210916123556 73 94 1.0 4.0 0.00 0.00 0.00 82 1014.3
20210916123115 73 86 1.0 4.0 0.00 0.00 0.00 82 1014.2
20210916122536 73 107 1.0 4.0 0.00 0.00 0.00 83 1014.2
20210916122043 73 136 2.0 4.0 0.00 0.00 0.00 83 1014.1
20210916121546 73 124 1.0 4.0 0.00 0.00 0.00 83 1014.0
20210916121036 73 111 2.0 4.0 0.00 0.00 0.00 84 1013.9
20210916120540 73 97 1.0 4.0 0.00 0.00 0.00 84 1013.8
20210916120108 73 49 2.0 4.0 0.00 0.00 0.00 84 1013.9
20210916115544 73 111 2.0 4.0 0.00 0.00 0.00 84 1013.7
20210916115052 73 98 0.0 3.0 0.00 0.00 0.00 84 1013.8
20210916114601 73 86 0.0 1.0 0.00 0.00 0.00 85 1013.7
20210916114038 73 0 0.0 0.0 0.00 0.00 0.00 86 1013.6
20210916113540 73 0 0.0 0.0 0.00 0.00 0.00 85 1013.5
20210916113100 74 0 0.0 0.0 0.00 0.00 0.00 85 1013.5
20210916112537 74 0 0.0 0.0 0.00 0.00 0.00 84 1013.5
20210916112051 74 0 0.0 0.0 0.00 0.00 0.00 83 1013.5
20210916111553 74 0 0.0 0.0 0.00 0.00 0.00 82 1013.5
20210916111038 74 0 0.0 0.0 0.00 0.00 0.00 82 1013.5
20210916110538 74 0 0.0 0.0 0.00 0.00 0.00 82 1013.5
20210916110103 74 0 0.0 0.0 0.00 0.00 0.00 83 1013.5
20210916105539 74 0 0.0 0.0 0.00 0.00 0.00 83 1013.5
20210916105042 74 0 0.0 0.0 0.00 0.00 0.00 83 1013.5
20210916104658 74 0 0.0 0.0 0.00 0.00 0.00 84 1013.4
20210916104041 74 0 0.0 0.0 0.00 0.00 0.00 85 1013.3
20210916103546 73 0 0.0 0.0 0.00 0.00 0.00 86 1013.2
20210916103049 73 0 0.0 0.0 0.00 0.00 0.00 86 1013.1
20210916102537 73 0 0.0 0.0 0.00 0.00 0.00 87 1013.2
20210916102037 73 0 0.0 0.0 0.00 0.00 0.00 87 1013.2
20210916101559 74 0 0.0 0.0 0.00 0.00 0.00 88 1013.2
20210916101036 74 0 0.0 0.0 0.00 0.00 0.00 89 1013.2
20210916100540 74 0 0.0 0.0 0.00 0.00 0.00 88 1013.2
20210916100054 74 0 0.0 0.0 0.00 0.00 0.00 88 1013.2
20210916095536 74 0 0.0 0.0 0.00 0.00 0.00 88 1013.2
20210916095051 74 0 0.0 0.0 0.00 0.00 0.00 88 1013.2
20210916094622 75 0 0.0 0.0 0.00 0.00 0.00 88 1013.2
20210916094037 75 0 0.0 0.0 0.00 0.00 0.00 87 1013.3
20210916093541 75 0 0.0 0.0 0.00 0.00 0.00 86 1013.2
20210916093139 75 0 0.0 0.0 0.00 0.00 0.00 84 1013.1
20210916092538 75 0 0.0 0.0 0.00 0.00 0.00 83 1013.1
20210916092058 75 0 0.0 0.0 0.00 0.00 0.00 84 1013.1
20210916091703 75 0 0.0 0.0 0.00 0.00 0.00 85 1013.1
20210916091035 75 0 0.0 0.0 0.00 0.00 0.00 84 1013.1
20210916090548 75 0 0.0 0.0 0.00 0.00 0.00 83 1013.2
20210916090159 75 0 0.0 0.0 0.00 0.00 0.00 84 1013.2
20210916085556 75 0 0.0 0.0 0.00 0.00 0.00 83 1013.1
20210916085036 75 0 0.0 0.0 0.00 0.00 0.00 82 1013.1
20210916084615 75 0 0.0 0.0 0.00 0.00 0.00 83 1013.2
20210916084049 75 0 0.0 0.0 0.00 0.00 0.00 82 1013.2
20210916083537 76 0 0.0 0.0 0.00 0.00 0.00 82 1013.2
20210916083105 76 0 0.0 0.0 0.00 0.00 0.00 83 1013.3
20210916082555 76 0 0.0 0.0 0.00 0.00 0.00 83 1013.3
20210916082105 76 0 0.0 0.0 0.00 0.00 0.00 82 1013.3
20210916081608 76 0 0.0 0.0 0.00 0.00 0.00 81 1013.3
20210916081037 76 0 0.0 0.0 0.00 0.00 0.00 78 1013.2
20210916080539 75 0 0.0 0.0 0.00 0.00 0.00 78 1013.3
20210916080130 75 0 0.0 0.0 0.00 0.00 0.00 79 1013.3
20210916075538 75 0 0.0 0.0 0.00 0.00 0.00 78 1013.3
20210916075038 75 0 0.0 0.0 0.00 0.00 0.00 78 1013.2
20210916074615 75 0 0.0 0.0 0.00 0.00 0.00 78 1013.3
20210916074037 75 0 0.0 0.0 0.00 0.00 0.00 77 1013.3
20210916073537 75 0 0.0 0.0 0.00 0.00 0.00 77 1013.3
20210916073130 75 0 0.0 0.0 0.00 0.00 0.00 76 1013.3
20210916072552 76 0 0.0 0.0 0.00 0.00 0.00 76 1013.3
20210916072054 76 0 0.0 0.0 0.00 0.00 0.00 76 1013.3
20210916071626 76 0 0.0 0.0 0.00 0.00 0.00 76 1013.4
20210916071051 76 0 0.0 0.0 0.00 0.00 0.00 76 1013.4
20210916070541 76 0 0.0 0.0 0.00 0.00 0.00 76 1013.4
20210916070131 76 0 0.0 0.0 0.00 0.00 0.00 76 1013.4
20210916065535 76 0 0.0 0.0 0.00 0.00 0.00 77 1013.4
20210916065039 77 0 0.0 0.0 0.00 0.00 0.00 76 1013.6
20210916064651 77 0 0.0 0.0 0.00 0.00 0.00 76 1013.5
20210916064050 77 0 0.0 0.0 0.00 0.00 0.00 75 1013.5
20210916063543 77 0 0.0 0.0 0.00 0.00 0.00 73 1013.6
20210916063055 77 0 0.0 0.0 0.00 0.00 0.00 73 1013.6
20210916062550 77 0 0.0 0.0 0.00 0.00 0.00 73 1013.6
20210916062036 77 0 0.0 0.0 0.00 0.00 0.00 73 1013.6
20210916061637 78 0 0.0 0.0 0.00 0.00 0.00 72 1013.6
20210916061040 78 0 0.0 0.0 0.00 0.00 0.00 72 1013.5
20210916060540 78 0 0.0 0.0 0.00 0.00 0.00 72 1013.6
20210916060139 78 0 0.0 0.0 0.00 0.00 0.00 72 1013.6
20210916055538 78 0 0.0 0.0 0.00 0.00 0.00 72 1013.6
20210916055045 78 0 0.0 0.0 0.00 0.00 0.00 72 1013.5
20210916054635 78 0 0.0 0.0 0.00 0.00 0.00 72 1013.6
20210916054038 78 0 0.0 0.0 0.00 0.00 0.00 72 1013.6
20210916053542 78 0 0.0 0.0 0.00 0.00 0.00 72 1013.5
20210916053134 78 0 0.0 0.0 0.00 0.00 0.00 73 1013.4
20210916052544 78 0 0.0 0.0 0.00 0.00 0.00 72 1013.4
20210916052039 78 0 0.0 0.0 0.00 0.00 0.00 73 1013.4
20210916051609 78 0 0.0 0.0 0.00 0.00 0.00 74 1013.5
20210916051041 78 0 0.0 0.0 0.00 0.00 0.00 74 1013.5
20210916050537 78 0 0.0 0.0 0.00 0.00 0.00 74 1013.4
20210916050125 78 0 0.0 0.0 0.00 0.00 0.00 73 1013.5
20210916045536 78 0 0.0 0.0 0.00 0.00 0.00 72 1013.5
20210916045042 78 0 0.0 0.0 0.00 0.00 0.00 70 1013.4
20210916044600 79 0 0.0 0.0 0.00 0.00 0.00 70 1013.4
20210916044036 79 0 0.0 0.0 0.00 0.00 0.00 70 1013.3
20210916043538 79 0 0.0 0.0 0.00 0.00 0.00 70 1013.3
20210916043111 79 0 0.0 0.0 0.00 0.00 0.00 69 1013.3
20210916042540 79 0 0.0 0.0 0.00 0.00 0.00 69 1013.2
20210916042038 79 0 0.0 0.0 0.00 0.00 0.00 69 1013.3
20210916041550 79 0 0.0 0.0 0.00 0.00 0.00 69 1013.3
20210916041038 79 0 0.0 0.0 0.00 0.00 0.00 69 1013.4
20210916040606 79 0 0.0 0.0 0.00 0.00 0.00 69 1013.4
20210916040213 79 0 0.0 0.0 0.00 0.00 0.00 70 1013.5
20210916035608 79 0 0.0 0.0 0.00 0.00 0.00 71 1013.5
20210916035039 79 0 0.0 0.0 0.00 0.00 0.00 74 1013.5
20210916034622 79 0 0.0 0.0 0.00 0.00 0.00 76 1013.5
20210916034048 79 0 0.0 0.0 0.00 0.00 0.00 76 1013.5
20210916033538 79 0 0.0 0.0 0.00 0.00 0.00 76 1013.5
20210916033114 79 0 0.0 0.0 0.00 0.00 0.00 74 1013.6
20210916032554 79 0 0.0 0.0 0.00 0.00 0.00 74 1013.5
20210916032039 79 0 0.0 0.0 0.00 0.00 0.00 74 1013.5
20210916031647 80 0 0.0 0.0 0.00 0.00 0.00 74 1013.5
20210916031049 80 0 0.0 0.0 0.00 0.00 0.00 73 1013.4
20210916030543 80 0 0.0 0.0 0.00 0.00 0.00 76 1013.4
20210916030231 80 0 0.0 0.0 0.00 0.00 0.00 73 1013.4
20210916025537 80 0 0.0 0.0 0.00 0.00 0.00 70 1013.4
20210916025041 80 0 0.0 0.0 0.00 0.00 0.00 69 1013.3
20210916024623 80 0 0.0 0.0 0.00 0.00 0.00 69 1013.2
20210916024038 80 0 0.0 0.0 0.00 0.00 0.00 68 1013.1
20210916023544 80 0 0.0 0.0 0.00 0.00 0.00 68 1013.0
20210916023109 80 0 0.0 0.0 0.00 0.00 0.00 67 1013.0
20210916022542 80 0 0.0 0.0 0.00 0.00 0.00 67 1013.0
20210916022048 80 0 0.0 0.0 0.00 0.00 0.00 66 1013.0
20210916021658 80 0 0.0 0.0 0.00 0.00 0.00 66 1012.9
20210916021057 81 0 0.0 0.0 0.00 0.00 0.00 66 1012.8
20210916020538 81 0 0.0 0.0 0.00 0.00 0.00 65 1012.8
20210916020131 81 0 0.0 0.0 0.00 0.00 0.00 64 1012.8
20210916015538 81 0 0.0 1.0 0.00 0.00 0.00 64 1012.7
20210916015039 82 0 0.0 1.0 0.00 0.00 0.00 64 1012.7
20210916014633 82 0 0.0 1.0 0.00 0.00 0.00 64 1012.5
20210916014038 82 0 0.0 1.0 0.00 0.00 0.00 64 1012.5
20210916013537 82 0 0.0 1.0 0.00 0.00 0.00 63 1012.5
20210916013109 83 0 0.0 1.0 0.00 0.00 0.00 62 1012.4
20210916012538 83 0 0.0 1.0 0.00 0.00 0.00 62 1012.4
20210916012039 83 0 0.0 1.0 0.00 0.00 0.00 61 1012.4
20210916011622 83 211 0.0 2.0 0.00 0.00 0.00 61 1012.3
20210916011102 83 0 0.0 2.0 0.00 0.00 0.00 61 1012.3
20210916010544 84 142 0.0 1.0 0.00 0.00 0.00 60 1012.3
20210916010159 84 0 0.0 2.0 0.00 0.00 0.00 59 1012.2
20210916005540 84 0 0.0 2.0 0.00 0.00 0.00 59 1012.1
20210916005046 85 144 0.0 1.0 0.00 0.00 0.00 58 1012.1
20210916004626 85 84 0.0 1.0 0.00 0.00 0.00 58 1012.0
20210916004038 86 0 0.0 1.0 0.00 0.00 0.00 57 1012.0
20210916003538 86 0 0.0 1.0 0.00 0.00 0.00 57 1012.0
20210916003123 87 0 0.0 2.0 0.00 0.00 0.00 57 1011.9
20210916002601 87 0 0.0 3.0 0.00 0.00 0.00 55 1011.9
20210916002042 87 0 1.0 3.0 0.00 0.00 0.00 54 1011.8
20210916001644 88 0 0.0 5.0 0.00 0.00 0.00 54 1011.9
20210916001038 88 33 1.0 5.0 0.00 0.00 0.00 53 1011.8
20210916000541 88 221 0.0 4.0 0.00 0.00 0.00 53 1011.8
20210916000130 88 86 0.0 6.0 0.00 0.00 0.00 52 1011.7
20210915235543 89 97 1.0 6.0 0.00 0.00 0.00 53 1011.6
20210915235040 89 11 1.0 5.0 0.00 0.00 0.00 52 1011.6
20210915234616 89 0 1.0 5.0 0.00 0.00 0.00 51 1011.6
20210915234039 89 63 0.0 4.0 0.00 0.00 0.00 51 1011.6
20210915233556 90 243 1.0 4.0 0.00 0.00 0.00 51 1011.6
20210915233111 90 0 0.0 4.0 0.00 0.00 0.00 51 1011.6
20210915232537 90 9 1.0 5.0 0.00 0.00 0.00 52 1011.6
20210915232039 90 44 2.0 5.0 0.00 0.00 0.00 51 1011.6
20210915231630 90 30 1.0 5.0 0.00 0.00 0.00 52 1011.5
20210915231037 90 299 1.0 5.0 0.00 0.00 0.00 51 1011.5
20210915230540 90 341 1.0 7.0 0.00 0.00 0.00 53 1011.5
20210915230118 89 345 1.0 7.0 0.00 0.00 0.00 51 1011.5
20210915225543 89 32 1.0 5.0 0.00 0.00 0.00 52 1011.5
20210915225104 89 76 0.0 6.0 0.00 0.00 0.00 54 1011.5
20210915224614 88 90 1.0 6.0 0.00 0.00 0.00 54 1011.5
20210915224039 88 19 1.0 6.0 0.00 0.00 0.00 53 1011.5
20210915223551 89 171 2.0 6.0 0.00 0.00 0.00 53 1011.4
20210915223142 89 104 1.0 4.0 0.00 0.00 0.00 51 1011.4
20210915222539 89 360 0.0 4.0 0.00 0.00 0.00 52 1011.4
20210915222040 89 5 1.0 9.0 0.00 0.00 0.00 52 1011.4
20210915221622 89 59 2.0 9.0 0.00 0.00 0.00 52 1011.4
20210915221039 89 5 1.0 7.0 0.00 0.00 0.00 55 1011.4
20210915220545 88 46 3.0 7.0 0.00 0.00 0.00 54 1011.3
20210915220253 87 5 2.0 9.0 0.00 0.00 0.00 56 1011.4
20210915215547 87 32 3.0 10.0 0.00 0.00 0.00 54 1011.4
20210915215046 88 11 5.0 10.0 0.00 0.00 0.00 53 1011.3
20210915214633 89 41 1.0 5.0 0.00 0.00 0.00 52 1011.4
20210915214041 88 17 1.0 9.0 0.00 0.00 0.00 52 1011.4
20210915213540 88 44 1.0 9.0 0.00 0.00 0.00 52 1011.5
20210915213129 89 317 2.0 8.0 0.00 0.00 0.00 52 1011.4
20210915212537 89 98 1.0 3.0 0.00 0.00 0.00 51 1011.5
20210915212039 89 156 0.0 3.0 0.00 0.00 0.00 51 1011.4
20210915211742 89 109 1.0 5.0 0.00 0.00 0.00 54 1011.5
20210915211047 89 0 1.0 8.0 0.00 0.00 0.00 52 1011.6
20210915210542 90 342 2.0 8.0 0.00 0.00 0.00 53 1011.6
20210915210206 89 46 2.0 6.0 0.00 0.00 0.00 53 1011.6
20210915205605 89 0 0.0 5.0 0.00 0.00 0.00 53 1011.7
20210915205039 89 159 1.0 6.0 0.00 0.00 0.00 54 1011.8
20210915204733 89 83 2.0 6.0 0.00 0.00 0.00 53 1011.8
20210915204037 89 40 2.0 6.0 0.00 0.00 0.00 54 1011.9
20210915203538 88 143 0.0 3.0 0.00 0.00 0.00 55 1011.9
20210915203122 88 5 0.0 4.0 0.00 0.00 0.00 53 1012.1
20210915202544 88 219 1.0 7.0 0.00 0.00 0.00 54 1012.1
20210915202051 89 337 3.0 7.0 0.00 0.00 0.00 53 1012.1
20210915201711 89 100 2.0 7.0 0.00 0.00 0.00 53 1012.2
20210915201043 89 332 1.0 8.0 0.00 0.00 0.00 54 1012.3
20210915200538 89 76 1.0 8.0 0.00 0.00 0.00 54 1012.4
20210915200158 89 121 2.0 8.0 0.00 0.00 0.00 53 1012.4
20210915195537 89 157 0.0 5.0 0.00 0.00 0.00 54 1012.5
20210915195039 88 93 1.0 5.0 0.00 0.00 0.00 54 1012.5
20210915194719 88 28 1.0 7.0 0.00 0.00 0.00 55 1012.6
20210915194046 88 316 2.0 7.0 0.00 0.00 0.00 55 1012.7
20210915193540 88 344 1.0 10.0 0.00 0.00 0.00 54 1012.8
20210915193254 88 42 1.0 10.0 0.00 0.00 0.00 54 1012.8
20210915192539 88 94 3.0 9.0 0.00 0.00 0.00 55 1012.9
20210915192039 88 124 1.0 9.0 0.00 0.00 0.00 56 1012.9
20210915191659 88 169 2.0 14.0 0.00 0.00 0.00 56 1012.9
20210915191048 87 37 2.0 14.0 0.00 0.00 0.00 57 1012.9
20210915190544 88 126 3.0 8.0 0.00 0.00 0.00 54 1013.0
20210915190122 88 14 2.0 8.0 0.00 0.00 0.00 57 1013.1
20210915185540 88 304 2.0 6.0 0.00 0.00 0.00 56 1013.1
20210915185042 88 68 2.0 8.0 0.00 0.00 0.00 57 1013.1
20210915184916 87 338 1.0 8.0 0.00 0.00 0.00 57 1013.3
20210915184052 87 329 1.0 7.0 0.00 0.00 0.00 59 1013.4
20210915183538 87 86 2.0 11.0 0.00 0.00 0.00 58 1013.4
20210915183120 87 65 4.0 11.0 0.00 0.00 0.00 57 1013.6
20210915182539 87 47 2.0 9.0 0.00 0.00 0.00 57 1013.7
20210915182041 86 120 2.0 9.0 0.00 0.00 0.00 57 1013.7
20210915181625 86 0 3.0 9.0 0.00 0.00 0.00 58 1013.8
20210915181042 86 129 2.0 9.0 0.00 0.00 0.00 60 1013.9
20210915180545 85 10 2.0 11.0 0.00 0.00 0.00 59 1013.9
20210915180122 85 42 5.0 11.0 0.00 0.00 0.00 61 1014.0
20210915175543 85 348 2.0 5.0 0.00 0.00 0.00 58 1014.0
20210915175108 85 135 1.0 7.0 0.00 0.00 0.00 59 1014.1
20210915174622 84 0 2.0 7.0 0.00 0.00 0.00 61 1014.1
20210915174037 85 26 2.0 7.0 0.00 0.00 0.00 60 1014.0
20210915173543 85 65 1.0 7.0 0.00 0.00 0.00 61 1014.1
20210915173111 84 96 2.0 10.0 0.00 0.00 0.00 62 1014.0
20210915172538 84 154 2.0 10.0 0.00 0.00 0.00 60 1014.2
20210915172049 84 360 2.0 9.0 0.00 0.00 0.00 61 1014.1
20210915171609 83 351 2.0 7.0 0.00 0.00 0.00 62 1014.2
20210915171049 83 311 4.0 9.0 0.00 0.00 0.00 61 1014.2
20210915170549 83 313 3.0 9.0 0.00 0.00 0.00 62 1014.3
20210915170130 83 315 2.0 8.0 0.00 0.00 0.00 62 1014.3
20210915165558 83 38 2.0 8.0 0.00 0.00 0.00 61 1014.4
20210915165048 83 127 2.0 8.0 0.00 0.00 0.00 61 1014.4
20210915164556 83 9 2.0 7.0 0.00 0.00 0.00 62 1014.5
20210915164039 82 0 1.0 9.0 0.00 0.00 0.00 62 1014.5